Siemreap, Cambodia

3:54 PM +07 on March 25, 2017 (GMT +0700)
Siem Reap

Weather History for VDSR - May, 2013

Change the Weather History Date:

Saturday, May 11, 2013

  Actual Average Record
Temperature  
Mean Temperature 91 °F -  
Max Temperature 98 °F - - ()
Min Temperature 84 °F - - ()
Cooling Degree Days 26    
Growing Degree Days 41 (Base 50)    
Moisture  
Dew Point 74 °F    
Average Humidity 60    
Maximum Humidity 79    
Minimum Humidity 39    
Precipitation  
Precipitation 0.00 in - - ()
Sea Level Pressure  
Sea Level Pressure 29.68 in    
Wind  
Wind Speed 6 mph ()    
Max Wind Speed 34 mph    
Max Gust Speed -    
Visibility 6.1 miles    
Events      
T = Trace of Precipitation, MM = Missing Value Source: Averaged Metar Reports

Daily Weather History Graph

Daily Weather History Graph

Search for Another Location

Airport or City:

Trip Planner

Search our weather history database for the weather conditions in past years. The results will help you decide how hot, cold, wet, or windy it might be!

Date:

Astronomy

May. 11, 2013 Rise Set
Actual Time 5:39 AM +07 6:22 PM +07
Civil Twilight 5:17 AM +07 6:44 PM +07
Nautical Twilight 4:50 AM +07 7:11 PM +07
Astronomical Twilight 4:24 AM +07 7:38 PM +07
Moon 6:27 AM +07 (5/11) 7:30 PM +07 (5/11)
Length of Visible Light 13h 27m
Length of Day
12h 42m
New Moon, 1% of the Moon is Illuminated
May 11
New Moon
May 18
First Quarter
May 25
Full
Jun 1
Last Quarter
Jun 8
New

Hourly Weather History & Observations

Time (+07) Temp. Heat Index Dew Point Humidity Pressure Visibility Wind Dir Wind Speed Gust Speed Precip Events Conditions
12:00 AM 84.2 °F 90.9 °F 73.4 °F 70% 29.74 in 5.6 mi SW 4.6 mph - N/A   Scattered Clouds
12:30 AM 84.2 °F 90.9 °F 73.4 °F 70% 29.71 in 5.6 mi Variable 2.3 mph - N/A   Scattered Clouds
1:00 AM 84.2 °F 90.9 °F 73.4 °F 70% 29.71 in 5.6 mi Calm Calm - N/A   Scattered Clouds
7:00 AM 84.2 °F 94.1 °F 77.0 °F 79% 29.71 in 6.2 mi North 34.5 mph - N/A   Scattered Clouds
7:30 AM 86.0 °F 99.3 °F 78.8 °F 79% 29.71 in 6.2 mi North 3.5 mph - N/A   Scattered Clouds
8:00 AM 87.8 °F 99.7 °F 77.0 °F 70% 29.71 in 6.2 mi NNW 3.5 mph - N/A   Scattered Clouds
8:30 AM 89.6 °F 102.2 °F 77.0 °F 66% 29.74 in 6.2 mi West 5.8 mph - N/A   Scattered Clouds
9:00 AM 89.6 °F 102.2 °F 77.0 °F 66% 29.74 in 6.2 mi WSW 2.3 mph - N/A   Scattered Clouds
9:30 AM 89.6 °F 99.8 °F 75.2 °F 62% 29.74 in 6.2 mi ESE 4.6 mph - N/A   Scattered Clouds
10:00 AM 91.4 °F 100.1 °F 73.4 °F 55% 29.74 in 6.2 mi SSW 4.6 mph - N/A   Mostly Cloudy
10:30 AM 91.4 °F 100.1 °F 73.4 °F 55% 29.74 in 6.2 mi SSW 5.8 mph - N/A   Scattered Clouds
11:00 AM 93.2 °F 102.4 °F 73.4 °F 52% 29.74 in 6.2 mi West 8.1 mph - N/A   Scattered Clouds
11:30 AM 95.0 °F 103.2 °F 71.6 °F 47% 29.71 in 6.2 mi West 3.5 mph - N/A   Scattered Clouds
12:00 PM 95.0 °F 103.2 °F 71.6 °F 47% 29.71 in 6.2 mi South 5.8 mph - N/A   Scattered Clouds
12:30 PM 95.0 °F 103.2 °F 71.6 °F 47% 29.68 in 6.2 mi West 5.8 mph - N/A   Scattered Clouds
1:00 PM 95.0 °F 103.2 °F 71.6 °F 47% 29.68 in 6.2 mi WSW 9.2 mph - N/A   Scattered Clouds
1:30 PM 96.8 °F 105.1 °F 71.6 °F 44% 29.65 in 6.2 mi WSW 10.4 mph - N/A   Scattered Clouds
2:00 PM 96.8 °F 103.1 °F 69.8 °F 41% 29.62 in 6.2 mi SSE 6.9 mph - N/A   Scattered Clouds
2:30 PM 96.8 °F 103.1 °F 69.8 °F 41% 29.62 in 6.2 mi SSE 5.8 mph - N/A   Scattered Clouds
3:00 PM 96.8 °F 103.1 °F 69.8 °F 41% 29.59 in 6.2 mi South 5.8 mph - N/A   Scattered Clouds
3:30 PM 98.6 °F 105.5 °F 69.8 °F 39% 29.59 in 6.2 mi South 5.8 mph - N/A   Scattered Clouds
4:00 PM 96.8 °F 101.8 °F 68.0 °F 39% 29.59 in 6.2 mi SSE 5.8 mph - N/A   Partly Cloudy
4:30 PM 96.8 °F 101.8 °F 68.0 °F 39% 29.59 in 6.2 mi WSW 3.5 mph - N/A   Partly Cloudy
5:00 PM 93.2 °F 105.0 °F 75.2 °F 56% 29.59 in - North - - N/A   Partly Cloudy
5:30 PM 89.6 °F 102.2 °F 77.0 °F 66% 29.59 in 6.2 mi East 10.4 mph - N/A   Scattered Clouds
6:00 PM 89.6 °F 102.2 °F 77.0 °F 66% 29.59 in 6.2 mi East 6.9 mph - N/A   Scattered Clouds
6:30 PM 87.8 °F 97.6 °F 75.2 °F 66% 29.62 in 6.2 mi East 5.8 mph - N/A   Partly Cloudy
7:00 PM 87.8 °F 99.7 °F 77.0 °F 70% 29.62 in 6.2 mi East 4.6 mph - N/A   Partly Cloudy
7:30 PM 87.8 °F 99.7 °F 77.0 °F 70% 29.65 in 6.2 mi East 4.6 mph - N/A   Partly Cloudy
8:00 PM 86.0 °F 96.9 °F 77.0 °F 74% 29.68 in 6.2 mi East 5.8 mph - N/A   Partly Cloudy
8:30 PM 86.0 °F 95.1 °F 75.2 °F 70% 29.68 in 6.2 mi East 6.9 mph - N/A   Partly Cloudy
9:00 PM 86.0 °F 95.1 °F 75.2 °F 70% 29.68 in 6.2 mi East 4.6 mph - N/A   Partly Cloudy
9:30 PM 86.0 °F 95.1 °F 75.2 °F 70% 29.71 in 6.2 mi ESE 8.1 mph - N/A   Partly Cloudy
10:00 PM 84.2 °F 90.9 °F 73.4 °F 70% 29.74 in 5.6 mi SE 6.9 mph - N/A   Partly Cloudy
10:30 PM 84.2 °F 92.3 °F 75.2 °F 74% 29.74 in 5.6 mi SE 9.2 mph - N/A   Partly Cloudy
11:00 PM 84.2 °F 92.3 °F 75.2 °F 74% 29.77 in 5.6 mi ESE 8.1 mph - N/A   Partly Cloudy
11:30 PM 84.2 °F 92.3 °F 75.2 °F 74% 29.74 in 5.6 mi SE 6.9 mph - N/A   Partly Cloudy